This is the latest recevied weather packets stored in our database for station/object N3FAA. If no packets are shown the sender has not sent any weather packets the latest 10 day(s).
| Time | Temp. | Humidity | Pressure | Rain* | Wind** | Luminosity | Snow |
|---|---|---|---|---|---|---|---|
| 1777624067 | 18.33° C | 46% | 1010 hPa | 0 mm | - | 0 W/m² | - |
| 1777623764 | 18.33° C | 46% | 1009.9 hPa | 0 mm | - | 0 W/m² | - |
| 1777623461 | 18.33° C | 46% | 1010.1 hPa | 0 mm | - | 0 W/m² | - |
| 1777623159 | 18.33° C | 46% | 1010.1 hPa | 0 mm | - | 0 W/m² | - |
| 1777622856 | 18.33° C | 46% | 1010.2 hPa | 0 mm | - | 0 W/m² | - |
| 1777622552 | 18.33° C | 46% | 1010.2 hPa | 0 mm | - | 0 W/m² | - |
| 1777622249 | 18.33° C | 46% | 1010.2 hPa | 0 mm | - | 0 W/m² | - |
| 1777621946 | 18.33° C | 45% | 1010.2 hPa | 0 mm | - | 0 W/m² | - |
| 1777621641 | 18.33° C | 45% | 1010.1 hPa | 0 mm | - | 0 W/m² | - |
| 1777621338 | 18.33° C | 45% | 1010.3 hPa | 0 mm | - | 0 W/m² | - |
| 1777621033 | 18.33° C | 43% | 1010 hPa | 0 mm | - | 0 W/m² | - |
| 1777620729 | 19.44° C | 40% | 1010.1 hPa | 0 mm | - | 0 W/m² | - |
| 1777620425 | 18.89° C | 38% | 1010.1 hPa | 0 mm | - | 0 W/m² | - |
| 1777620123 | 19.44° C | 39% | 1010.1 hPa | 0 mm | - | 0 W/m² | - |
| 1777619819 | 19.44° C | 36% | 1010 hPa | 0 mm | - | 0 W/m² | - |
| 1777619515 | 19.44° C | 37% | 1010 hPa | 0 mm | - | 0 W/m² | - |
| 1777619210 | 20° C | 36% | 1010 hPa | 0 mm | - | 0 W/m² | - |
| 1777618910 | 19.44° C | 38% | 1009.9 hPa | 0 mm | - | 0 W/m² | - |
| 1777618604 | 20° C | 36% | 1010 hPa | 0 mm | - | 0 W/m² | - |
| 1777618300 | 20° C | 36% | 1009.8 hPa | 0 mm | - | 0 W/m² | - |
| 1777617997 | 19.44° C | 38% | 1009.8 hPa | 0 mm | - | 0 W/m² | - |
| 1777617693 | 19.44° C | 38% | 1009.9 hPa | 0 mm | - | 0 W/m² | - |
| 1777617382 | 20° C | 38% | 1010 hPa | 0 mm | - | 0 W/m² | - |
| 1777617081 | 20° C | 37% | 1009.9 hPa | 0 mm | - | 0 W/m² | - |
| 1777616775 | 20° C | 36% | 1009.9 hPa | 0 mm | - | 0 W/m² | - |
* Rain latest hour (hover to see other rain measurements)
** Current wind speed in m/s (hover to see current wind gust speed)